GW1804 Weather Reports


time (UTC)temp
F
wind
direction
speed
knots
gust
knots
rain 1hr
in
rain 24hr
in
rain mn
in
humidity
%
barometer
mb
20260906220534 88 20 1.7 9.6 0.00 0.06 0.06 56 1011.2
20260906220103 88 352 2.6 9.6 0.00 0.06 0.06 56 1011.4
20260906215535 88 28 1.7 6.1 0.00 0.06 0.06 57 1011.4
20260906215031 88 41 1.7 9.6 0.00 0.06 0.06 58 1011.4
20260906214608 88 49 2.6 9.6 0.00 0.06 0.06 58 1011.4
20260906214034 88 52 1.7 5.2 0.00 0.06 0.06 60 1011.5
20260906213532 88 18 2.6 7.8 0.00 0.06 0.06 61 1011.4
20260906213055 87 17 1.7 7.8 0.00 0.06 0.06 62 1011.4
20260906212538 87 39 1.7 7.0 0.00 0.06 0.06 64 1011.5
20260906212035 85 48 0.9 7.0 0.00 0.06 0.06 65 1011.5
20260906211552 85 70 1.7 7.8 0.00 0.06 0.06 66 1011.7
20260906211035 84 68 1.7 9.6 0.00 0.06 0.06 66 1011.8
20260906210535 85 15 1.7 9.6 0.00 0.06 0.06 65 1011.9
20260906210113 85 5 2.6 9.6 0.00 0.06 0.06 65 1011.8
20260906205534 85 105 0.9 7.8 0.00 0.06 0.06 65 1011.8
20260906205031 85 78 1.7 7.8 0.00 0.06 0.06 65 1012.0
20260906204601 85 346 1.7 7.8 0.00 0.06 0.06 65 1012.1
20260906204032 85 27 2.6 7.8 0.00 0.06 0.06 65 1012.1
20260906203538 85 352 1.7 8.7 0.00 0.06 0.06 67 1012.2
20260906203059 85 74 2.6 8.7 0.00 0.06 0.06 67 1012.2
20260906202531 84 38 2.6 8.7 0.00 0.06 0.06 69 1012.2
20260906202034 84 22 1.7 8.7 0.00 0.06 0.06 70 1012.3
20260906201637 83 34 2.6 8.7 0.00 0.06 0.06 71 1012.4
20260906201034 82 5 3.5 7.8 0.00 0.06 0.06 72 1012.5
20260906200532 82 351 1.7 7.8 0.00 0.06 0.06 75 1012.5
20260906200100 81 37 1.7 7.8 0.01 0.06 0.06 76 1012.7
20260906195532 80 309 1.7 7.8 0.01 0.06 0.06 78 1012.7
20260906195032 79 329 2.6 7.0 0.01 0.06 0.06 79 1012.7
20260906194606 78 53 1.7 8.7 0.01 0.06 0.06 81 1012.9
20260906194032 77 360 1.7 8.7 0.01 0.06 0.06 82 1013.0
20260906193532 77 340 3.5 8.7 0.01 0.06 0.06 83 1013.1
20260906193056 76 343 1.7 7.8 0.01 0.06 0.06 84 1013.1
20260906192531 75 14 1.7 6.1 0.01 0.06 0.06 84 1013.2
20260906192032 75 36 1.7 6.1 0.01 0.06 0.06 83 1013.2
20260906191612 75 360 0.9 3.5 0.01 0.06 0.06 83 1013.3
20260906191035 75 0 0.9 3.5 0.01 0.06 0.06 82 1013.3
20260906190533 74 352 0.9 4.3 0.01 0.06 0.06 81 1013.4
20260906190052 74 98 0.0 4.3 0.00 0.05 0.05 80 1013.4
20260906185534 74 59 0.9 4.3 0.00 0.05 0.05 79 1013.4
20260906185034 75 42 0.9 3.5 0.00 0.05 0.05 78 1013.4
20260906184602 75 23 0.9 4.3 0.00 0.05 0.05 77 1013.3
20260906184031 75 15 1.7 4.3 0.00 0.05 0.05 75 1013.4
20260906183534 74 352 1.7 7.8 0.00 0.05 0.05 74 1013.5
20260906183103 74 28 1.7 7.8 0.00 0.05 0.05 74 1013.5
20260906182536 74 352 1.7 7.8 0.00 0.05 0.05 74 1013.6
20260906182037 74 5 1.7 7.0 0.00 0.05 0.05 75 1013.6
20260906181607 74 27 1.7 7.0 0.00 0.05 0.05 75 1013.7
20260906181032 74 350 0.9 4.3 0.00 0.05 0.05 75 1013.7
20260906180535 74 333 0.9 8.7 0.00 0.05 0.05 75 1013.8
20260906180051 74 74 1.7 8.7 0.00 0.05 0.05 74 1014.0
20260906175532 74 335 1.7 8.7 0.00 0.05 0.05 73 1013.9
20260906175034 74 345 1.7 8.7 0.00 0.05 0.05 72 1013.9
20260906174610 74 5 1.7 8.7 0.00 0.05 0.05 72 1013.9
20260906174033 75 12 1.7 7.0 0.00 0.05 0.05 73 1013.7
20260906173531 75 352 2.6 7.0 0.00 0.05 0.05 73 1013.5
20260906173102 75 337 2.6 7.8 0.00 0.05 0.05 73 1013.6
20260906172531 75 15 3.5 7.8 0.00 0.05 0.05 72 1013.5
20260906172030 75 328 2.6 7.8 0.00 0.05 0.05 72 1013.5
20260906171552 75 13 2.6 7.8 0.00 0.05 0.05 73 1013.4
20260906171031 75 15 1.7 6.1 0.00 0.05 0.05 74 1013.5
20260906170535 75 13 1.7 7.0 0.00 0.05 0.05 75 1013.4
20260906165534 75 341 1.7 7.0 0.00 0.05 0.05 78 1013.3
20260906165051 75 13 1.7 4.3 0.00 0.05 0.05 79 1013.3
20260906164600 74 315 1.7 4.3 0.00 0.05 0.05 79 1013.1
20260906164033 74 5 0.9 3.5 0.00 0.05 0.05 79 1013.1
20260906163534 74 352 0.0 2.6 0.00 0.05 0.05 79 1013.1
20260906163102 74 0 0.0 2.6 0.00 0.05 0.05 79 1013.0
20260906162532 74 56 0.0 2.6 0.00 0.05 0.05 79 1013.0
20260906162032 74 16 0.0 2.6 0.00 0.05 0.05 79 1013.0
20260906161610 73 0 0.0 2.6 0.00 0.05 0.05 79 1013.0
20260906161032 73 352 0.0 0.9 0.00 0.05 0.05 79 1012.9
20260906160531 73 0 0.0 0.0 0.00 0.05 0.05 79 1013.0
20260906160051 73 0 0.0 0.9 0.00 0.05 0.05 79 1012.9
20260906155532 73 0 0.0 0.9 0.00 0.05 0.05 79 1012.8
20260906155032 72 0 0.0 0.9 0.00 0.05 0.05 78 1012.9
20260906154559 72 0 0.0 0.9 0.00 0.05 0.05 78 1012.9
20260906154033 72 0 0.0 0.9 0.00 0.05 0.05 78 1012.8
20260906153534 71 0 0.0 0.9 0.00 0.05 0.05 79 1012.8
20260906153053 71 0 0.0 0.9 0.00 0.05 0.05 79 1012.9
20260906152531 71 0 0.0 2.6 0.00 0.05 0.05 79 1012.9
20260906152036 71 0 0.0 2.6 0.00 0.05 0.05 78 1012.9
20260906151553 71 0 0.0 3.5 0.00 0.05 0.05 79 1013.0
20260906151034 70 5 0.9 3.5 0.00 0.05 0.05 79 1012.9
20260906150535 70 5 0.9 4.3 0.00 0.05 0.05 80 1013.0
20260906145532 70 0 0.9 4.3 0.00 0.05 0.05 81 1013.0
20260906145032 70 0 0.9 3.5 0.00 0.05 0.05 82 1012.9
20260906144558 70 23 0.9 3.5 0.00 0.05 0.05 82 1012.9
20260906144034 70 316 0.9 5.2 0.00 0.05 0.05 82 1012.9
20260906143532 70 17 0.9 5.2 0.00 0.05 0.05 83 1012.8
20260906143055 71 322 0.9 4.3 0.00 0.05 0.05 83 1012.7
20260906142532 71 313 0.9 4.3 0.00 0.05 0.05 83 1012.7
20260906142031 71 283 0.9 4.3 0.00 0.05 0.05 83 1012.8
20260906141553 70 0 0.9 5.2 0.00 0.05 0.05 82 1012.6
20260906141032 70 32 1.7 5.2 0.00 0.05 0.05 81 1012.6
20260906140532 70 289 0.9 4.3 0.00 0.05 0.05 82 1012.5
20260906140108 70 360 0.0 3.5 0.00 0.05 0.05 83 1012.4
20260906135532 70 352 0.0 1.7 0.00 0.05 0.05 82 1012.3
20260906135033 70 281 0.0 1.7 0.00 0.05 0.05 82 1012.3
20260906134605 70 0 0.0 0.0 0.00 0.05 0.05 82 1012.2
20260906134036 70 0 0.0 0.0 0.00 0.05 0.05 81 1012.2
20260906133536 70 0 0.0 0.0 0.00 0.05 0.05 81 1012.0
20260906133119 70 0 0.0 0.0 0.00 0.05 0.05 81 1011.9
20260906132539 70 0 0.0 0.0 0.00 0.05 0.05 81 1011.8
20260906132035 70 0 0.0 0.0 0.00 0.05 0.05 81 1011.8
20260906131603 70 0 0.0 0.0 0.00 0.05 0.05 82 1011.8
20260906131035 70 0 0.0 0.0 0.00 0.05 0.05 82 1011.8
20260906130537 70 0 0.0 0.0 0.00 0.05 0.05 82 1011.7
20260906130112 70 0 0.0 0.0 0.00 0.05 0.05 82 1011.6
20260906125539 70 0 0.0 0.0 0.00 0.05 0.05 81 1011.5
20260906125036 70 0 0.0 0.9 0.00 0.05 0.05 81 1011.4
20260906124557 70 0 0.0 0.9 0.00 0.05 0.05 81 1011.4
20260906124033 69 0 0.0 0.0 0.00 0.05 0.05 81 1011.4
20260906123536 69 0 0.0 0.0 0.00 0.05 0.05 80 1011.3
20260906123053 69 0 0.0 0.0 0.00 0.05 0.05 80 1011.5
20260906122536 69 0 0.0 0.0 0.00 0.05 0.05 81 1011.5
20260906122035 69 0 0.0 0.0 0.00 0.05 0.05 81 1011.6
20260906121618 69 0 0.0 0.0 0.00 0.05 0.05 82 1011.5
20260906121037 69 0 0.0 0.0 0.00 0.05 0.05 83 1011.7
20260906120538 69 0 0.0 0.0 0.00 0.05 0.05 83 1011.6
20260906120101 69 0 0.0 0.0 0.00 0.05 0.05 83 1011.7
20260906115536 68 0 0.0 0.0 0.01 0.05 0.05 83 1011.7
20260906115035 68 0 0.0 0.9 0.01 0.05 0.05 83 1011.6
20260906114609 69 0 0.0 0.9 0.01 0.05 0.05 84 1011.7
20260906114036 69 0 0.0 0.9 0.01 0.05 0.05 86 1011.7
20260906113536 69 0 0.0 0.9 0.01 0.05 0.05 87 1011.7
20260906113106 69 0 0.0 0.9 0.01 0.05 0.05 87 1011.7
20260906112535 69 0 0.0 0.9 0.01 0.05 0.05 87 1011.7
20260906112036 70 0 0.0 2.6 0.01 0.05 0.05 87 1011.7
20260906111603 70 0 0.0 2.6 0.01 0.05 0.05 88 1011.7
20260906111035 71 64 0.0 1.7 0.01 0.05 0.05 90 1011.8
20260906110535 72 0 0.0 0.0 0.01 0.05 0.05 90 1011.9
20260906110059 72 0 0.0 0.0 0.01 0.05 0.05 90 1011.8
20260906105538 72 0 0.0 0.0 0.00 0.04 0.04 90 1011.8
20260906105039 72 0 0.0 0.9 0.00 0.04 0.04 90 1011.9
20260906104554 72 0 0.0 0.9 0.00 0.04 0.04 90 1011.9
20260906104036 72 0 0.0 0.9 0.00 0.04 0.04 90 1011.9
20260906103535 72 0 0.0 0.9 0.00 0.04 0.04 90 1012.0
20260906103052 72 0 0.0 0.0 0.00 0.04 0.04 90 1012.1
20260906102531 72 0 0.0 0.0 0.00 0.04 0.04 90 1012.0
20260906102031 72 0 0.0 0.0 0.00 0.04 0.04 90 1012.0
20260906101603 72 0 0.0 0.0 0.00 0.04 0.04 90 1012.0
20260906101036 72 0 0.0 0.0 0.00 0.04 0.04 90 1011.9
20260906100531 72 0 0.0 0.0 0.00 0.04 0.04 90 1011.9
20260906100057 72 0 0.0 0.9 0.00 0.04 0.04 90 1012.0
20260906095532 72 0 0.0 0.9 0.00 0.04 0.04 89 1012.0
20260906095032 72 0 0.0 0.9 0.01 0.04 0.04 89 1011.9
20260906094554 72 0 0.0 0.0 0.01 0.04 0.04 89 1012.0
20260906094032 72 0 0.0 0.0 0.01 0.04 0.04 89 1012.0
20260906093532 72 0 0.0 0.0 0.02 0.04 0.04 88 1012.0
20260906093053 72 0 0.0 0.0 0.03 0.04 0.04 88 1012.1
20260906092531 72 0 0.0 0.0 0.03 0.04 0.04 88 1012.2
20260906092032 72 0 0.0 0.9 0.03 0.04 0.04 88 1012.3
20260906091614 72 0 0.0 0.9 0.04 0.04 0.04 88 1012.2
20260906091031 72 0 0.0 0.0 0.04 0.04 0.04 88 1012.1
20260906090532 72 0 0.0 0.0 0.04 0.04 0.04 88 1012.1
20260906090106 72 0 0.0 0.0 0.04 0.04 0.04 88 1012.0
20260906085530 72 0 0.0 0.9 0.04 0.04 0.04 88 1012.1
20260906085032 72 0 0.0 0.9 0.03 0.03 0.03 88 1012.2
20260906084553 72 0 0.0 0.9 0.03 0.03 0.03 88 1012.3
20260906084032 72 0 0.0 0.9 0.03 0.03 0.03 88 1012.3
20260906083532 72 0 0.0 0.9 0.02 0.02 0.02 88 1012.4
20260906083103 72 281 0.0 0.9 0.01 0.01 0.01 87 1012.5
20260906082532 72 0 0.0 0.9 0.01 0.01 0.01 87 1012.6
20260906082031 72 0 0.0 0.9 0.01 0.01 0.01 87 1012.7
20260906081602 72 0 0.0 1.7 0.00 0.00 0.00 87 1012.7
20260906081031 72 0 0.0 1.7 0.00 0.00 0.00 87 1012.7
20260906080531 72 0 0.0 0.9 0.00 0.00 0.00 87 1012.7
20260906080109 72 0 0.0 1.7 0.00 0.00 0.00 86 1012.6
20260906075531 72 0 0.0 1.7 0.00 0.00 0.00 86 1012.7
20260906075031 72 281 0.0 0.9 0.00 0.00 0.00 86 1012.7
20260906074556 72 0 0.0 0.0 0.00 0.00 0.00 86 1012.6
20260906074031 72 0 0.0 0.0 0.00 0.00 0.00 86 1012.5
20260906073536 72 0 0.0 0.9 0.00 0.00 0.00 86 1012.5
20260906073052 72 0 0.0 0.9 0.00 0.00 0.00 86 1012.5
20260906072536 72 0 0.0 0.9 0.00 0.00 0.00 86 1012.6
20260906072035 72 0 0.0 0.9 0.00 0.00 0.00 86 1012.6
20260906071551 72 0 0.0 0.9 0.00 0.00 0.00 86 1012.7
20260906071035 72 322 0.0 0.9 0.00 0.00 0.00 86 1012.7
20260906070536 72 0 0.0 0.9 0.00 0.00 0.00 86 1012.5
20260906065538 72 0 0.0 1.7 0.00 0.00 0.00 86 1012.6
20260906065034 72 322 0.0 1.7 0.00 0.00 0.00 85 1012.6
20260906064555 72 322 0.0 0.9 0.00 0.00 0.00 85 1012.5
20260906064036 72 0 0.0 1.7 0.00 0.00 0.00 85 1012.7
20260906063535 72 0 0.0 1.7 0.00 0.00 0.00 85 1012.5
20260906063053 72 0 0.0 1.7 0.00 0.00 0.00 85 1012.5
20260906062535 72 0 0.0 2.6 0.00 0.00 0.00 85 1012.7
20260906062037 72 0 0.9 2.6 0.00 0.00 0.00 85 1012.7
20260906061605 72 352 0.0 1.7 0.00 0.00 0.00 85 1012.7
20260906061035 73 0 0.0 3.5 0.00 0.00 0.00 85 1012.6
20260906060535 73 0 0.9 3.5 0.00 0.00 0.00 85 1012.6
20260906060150 73 303 1.7 3.5 0.00 0.00 0.00 85 1012.6
20260906055535 73 303 1.7 2.6 0.00 0.00 0.00 85 1012.5
20260906055035 73 306 0.9 3.5 0.00 0.00 0.00 84 1012.6
20260906054554 73 0 0.9 3.5 0.00 0.00 0.00 84 1012.5
20260906054037 73 295 0.0 2.6 0.00 0.00 0.00 83 1012.6
20260906053535 73 320 0.9 2.6 0.00 0.00 0.00 83 1012.6
20260906053053 73 294 0.0 1.7 0.00 0.00 0.00 82 1012.6
20260906052536 73 0 0.0 2.6 0.00 0.00 0.00 81 1012.6
20260906052037 73 306 0.9 2.6 0.00 0.00 0.00 81 1012.7
20260906051605 73 306 0.9 1.7 0.00 0.00 0.00 80 1012.7
20260906051036 73 0 0.0 0.9 0.00 0.00 0.00 80 1012.6
20260906050535 73 0 0.0 0.9 0.00 0.00 0.00 81 1012.5
20260906050114 73 0 0.0 0.9 0.00 0.00 0.00 81 1012.4
20260906045535 73 0 0.0 0.9 0.00 0.00 0.00 81 1012.5
20260906045036 73 0 0.0 0.9 0.00 0.00 0.00 81 1012.6
20260906044554 73 0 0.0 0.9 0.00 0.00 0.00 80 1012.7
20260906044037 73 0 0.0 0.0 0.00 0.00 0.00 79 1012.7
20260906043535 73 0 0.0 0.0 0.00 0.00 0.00 78 1012.6
20260906043110 73 0 0.0 0.9 0.00 0.00 0.00 78 1012.6
20260906042536 73 0 0.0 0.9 0.00 0.00 0.00 78 1012.5
20260906042035 73 0 0.0 0.0 0.00 0.00 0.00 78 1012.4
20260906041601 73 0 0.0 0.0 0.00 0.00 0.00 78 1012.5
20260906041036 73 0 0.0 0.0 0.00 0.00 0.00 78 1012.5
20260906040535 73 0 0.0 0.9 0.00 0.00 0.00 78 1012.5
20260906035539 73 0 0.0 0.9 0.00 0.00 0.00 78 1012.4
20260906035034 73 0 0.0 0.9 0.00 0.00 0.00 79 1012.4
20260906034559 73 0 0.0 0.9 0.00 0.00 0.00 79 1012.4
20260906034031 73 0 0.0 0.9 0.00 0.00 0.00 79 1012.4
20260906033535 73 0 0.0 0.9 0.00 0.00 0.00 80 1012.3
20260906033052 73 0 0.0 0.9 0.00 0.00 0.00 80 1012.4
20260906032535 74 0 0.0 0.9 0.00 0.00 0.00 80 1012.4
20260906032035 74 0 0.0 1.7 0.00 0.00 0.00 80 1012.3
20260906031624 74 0 0.0 1.7 0.00 0.00 0.00 80 1012.3
20260906031035 74 0 0.0 1.7 0.00 0.00 0.00 80 1012.3
20260906030536 74 0 0.0 1.7 0.00 0.00 0.00 79 1012.4
20260906030054 74 338 0.0 2.6 0.00 0.00 0.00 79 1012.3
20260906025536 74 0 0.0 2.6 0.00 0.00 0.00 79 1012.2
20260906025035 74 323 0.9 2.6 0.00 0.00 0.00 79 1012.2
20260906024556 74 332 0.0 2.6 0.00 0.00 0.00 78 1012.2
20260906024035 74 0 0.9 2.6 0.00 0.00 0.00 77 1012.1
20260906023536 75 0 0.0 1.7 0.00 0.00 0.00 77 1012.1
20260906023112 75 0 0.0 1.7 0.00 0.00 0.00 77 1012.1
20260906022539 75 0 0.0 1.7 0.00 0.00 0.00 76 1012.1
20260906022035 75 0 0.0 1.7 0.00 0.00 0.00 76 1012.0
20260906021605 75 344 0.0 2.6 0.00 0.00 0.00 75 1012.0
20260906021037 75 337 0.0 2.6 0.00 0.00 0.00 74 1012.0
20260906020538 75 302 0.0 3.5 0.00 0.00 0.00 74 1012.1
20260906015535 76 311 0.9 3.5 0.00 0.00 0.00 73 1012.0
20260906015035 76 320 1.7 4.3 0.00 0.00 0.00 73 1012.2
20260906014558 76 315 1.7 4.3 0.00 0.00 0.00 73 1012.1
20260906014035 76 298 1.7 4.3 0.00 0.00 0.00 73 1012.1
20260906013535 76 320 1.7 3.5 0.00 0.00 0.00 71 1012.1
20260906013056 77 305 0.9 3.5 0.00 0.00 0.00 70 1012.2
20260906012534 77 314 1.7 4.3 0.00 0.00 0.00 69 1012.2
20260906012035 77 283 1.7 4.3 0.00 0.00 0.00 70 1012.3
20260906011615 77 296 2.6 4.3 0.00 0.00 0.00 66 1012.3
20260906011035 78 296 1.7 4.3 0.00 0.00 0.00 65 1012.2
20260906010535 78 330 1.7 4.3 0.00 0.00 0.00 65 1012.2
20260906010053 79 306 1.7 3.5 0.00 0.00 0.00 63 1012.2
20260906005534 79 315 1.7 3.5 0.00 0.00 0.00 61 1012.2
20260906005032 80 265 1.7 3.5 0.00 0.00 0.00 56 1012.2
20260906004602 80 292 1.7 5.2 0.00 0.00 0.00 61 1012.1
20260906004036 80 298 1.7 5.2 0.00 0.00 0.00 63 1012.1
20260906003535 80 315 1.7 5.2 0.00 0.00 0.00 61 1012.1
20260906003057 80 315 1.7 4.3 0.00 0.00 0.00 61 1012.1
20260906002532 80 269 1.7 5.2 0.00 0.00 0.00 60 1012.1
20260906002035 80 293 1.7 6.1 0.00 0.00 0.00 59 1012.1
20260906001611 81 300 1.7 6.1 0.00 0.00 0.00 57 1012.2
20260906001032 81 295 1.7 6.1 0.00 0.00 0.00 60 1012.2
20260906000532 81 302 3.5 6.1 0.00 0.00 0.00 60 1012.1
20260906000109 81 278 1.7 7.8 0.00 0.00 0.00 61 1012.1
20260905235536 81 286 2.6 7.8 0.00 0.00 0.00 63 1012.2
20260905235033 81 275 2.6 7.0 0.00 0.00 0.00 62 1012.1
20260905234559 81 301 2.6 7.8 0.00 0.00 0.00 61 1012.1
20260905234035 81 322 2.6 7.8 0.00 0.00 0.00 63 1012.2
20260905233535 81 299 3.5 7.8 0.00 0.00 0.00 64 1012.2
20260905233107 81 312 3.5 7.8 0.00 0.00 0.00 64 1012.1
20260905232533 82 315 3.5 6.1 0.00 0.00 0.00 63 1012.1
20260905232035 82 326 2.6 7.0 0.00 0.00 0.00 60 1012.1
20260905231618 82 296 2.6 7.0 0.00 0.00 0.00 63 1012.1
20260905231037 82 315 3.5 7.0 0.00 0.00 0.00 62 1012.1
20260905230535 82 318 3.5 7.0 0.00 0.00 0.00 59 1012.1
20260905230108 82 309 3.5 7.0 0.00 0.00 0.00 58 1012.2
20260905225536 83 325 3.5 7.0 0.00 0.00 0.00 57 1012.2
20260905225035 83 298 3.5 7.0 0.00 0.00 0.00 57 1012.1
20260905224555 83 309 2.6 7.0 0.00 0.00 0.00 55 1012.2
20260905224039 83 296 3.5 7.8 0.00 0.00 0.00 55 1012.2
20260905223535 82 243 3.5 7.8 0.00 0.00 0.00 51 1012.2
20260905223105 82 282 3.5 7.8 0.00 0.00 0.00 55 1012.3
20260905222532 82 311 2.6 7.8 0.00 0.00 0.00 59 1012.3
20260905222034 82 308 3.5 7.0 0.00 0.00 0.00 59 1012.4
20260905221621 82 279 2.6 9.6 0.00 0.00 0.00 63 1012.4
20260905221032 81 297 3.5 9.6 0.00 0.00 0.00 62 1012.5